Regional Weather Roundup
Issued by NWS

Home | Current Version | Previous Version | Graphics & Text | Print | Product List | Glossary Off
Versions: 1 2 3 4 5 6 7 8 9 10 11 12 13 14 15 16 17 18 19 20 21 22 23 24 25 26 27 28 29 30 31 32 33 34 35 36 37 38 39 40 41 42 43 44 45 46 47 48 49 50

000
ASUS43 KMKX 270800
RWRWI

WISCONSIN REGIONAL WEATHER ROUNDUP
NATIONAL WEATHER SERVICE MILWAUKEE/SULLIVAN WI
300 AM CDT TUE JUN 27 2017

NOTE: "FAIR" INDICATES FEW OR NO CLOUDS BELOW 12,000 FEET WITH NO
SIGNIFICANT WEATHER AND/OR OBSTRUCTIONS TO VISIBILITY.

WIZ001-002-006>008-014>016-023>028-270900-
NORTHWEST WISCONSIN

CITY           SKY/WX    TMP DP  RH WIND       PRES   REMARKS
SUPERIOR ARPT  NOT AVBL
ASHLAND        CLOUDY    52  48  86 SW8       30.03S
HAYWARD        CLEAR     49  46  90 CALM      30.06F
SIREN          CLEAR     46  44  91 CALM      30.07S
CUMBERLAND     CLEAR     48  45  87 CALM      30.08S
RICE LAKE      PTCLDY    49  48  97 CALM      30.09S
CHETEK         CLOUDY    48  48 100 CALM      30.08S
LADYSMITH      CLOUDY    53  49  86 W3        30.08F
EAU CLAIRE     CLEAR     51  47  86 SW7       30.08S
MENOMONIE      CLEAR     51  47  87 CALM      30.09S
NEW RICHMOND   CLEAR     51  46  83 SW5       30.09F
OSCEOLA        CLEAR     48  48 100 CALM      30.12S
$$

WIZ003>005-009-010-017-018-270900-
NORTH CENTRAL WISCONSIN

CITY           SKY/WX    TMP DP  RH WIND       PRES   REMARKS
MANITOWISH WTR CLOUDY    46  46 100 CALM      30.04S
ARBOR VITAE    CLOUDY    50  48  93 CALM      30.04S
WOODRUFF       CLOUDY    50  48  93 CALM      30.04S
RHINELANDER    PTCLDY    45  45 100 W7        30.05S
EAGLE RIVER    CLEAR     46  45  98 W3        30.03S
LAND O LAKES   MOCLDY    43  43 100 CALM      30.05R
PHILLIPS       CLOUDY    50  50  99 CALM      30.05S
TOMAHAWK       NOT AVBL
MEDFORD        LGT RAIN  51  46  85 W8        30.07S
MERRILL        MOCLDY    41  41 100 CALM      30.07S
$$

WIZ029-030-035-036-043>047-270900-
CENTRAL WISCONSIN

CITY           SKY/WX    TMP DP  RH WIND       PRES   REMARKS
WAUSAU         CLEAR     49  46  90 NW5       30.05S
MOSINEE        CLEAR     46  45  93 W5        30.07S
MARSHFIELD     CLOUDY    51  46  83 W8        30.07S
STEVENS POINT  CLEAR     43  43 100 CALM      30.08S
WAUPACA        CLEAR     52  49  89 W5        30.06S
WAUTOMA        PTCLDY    47  45  93 CALM      30.08S
WISC RAPIDS    PTCLDY    50  46  86 W3        30.09S
CAMP DOUGLAS   NOT AVBL
$$

WIZ011>013-019>022-031-037>040-048>050-270900-
NORTHEAST WISCONSIN

CITY           SKY/WX    TMP DP  RH WIND       PRES   REMARKS
ANTIGO         CLEAR     44  44 100 CALM      30.06S
SHAWANO        CLEAR     52  48  86 W6        30.04S
OCONTO         CLEAR     47  46  96 W6        30.03R
STURGEON BAY     N/A     51  50  96 W6          N/A
GREEN BAY      CLEAR     51  50  96 W8        30.04S
MANITOWOC      NOT AVBL
APPLETON       CLEAR     48  46  93 W8        30.04S
CLINTONVILLE   CLEAR     48  45  87 W6        30.05S
OSHKOSH        CLEAR     52  46  80 W6        30.06S
$$

WIZ032>034-041-042-053>061-270900-
SOUTHWEST WISCONSIN

CITY           SKY/WX    TMP DP  RH WIND       PRES   REMARKS
LA CROSSE      CLEAR     56  49  77 SE6       30.10S
SPARTA         CLEAR     42  42 100 CALM      30.11F
VIROQUA        CLEAR     51  47  86 W5        30.11F
BOSCOBEL       CLEAR     49  46  90 SW3       30.12F
PRAIRIE DU CHI PTCLDY    48  46  90 E3        30.12S
PLATTEVILLE    PTCLDY    52  47  83 CALM      30.13S
$$

WIZ056-057-062-063-064-067-068-270900-
SOUTH CENTRAL WISCONSIN

CITY           SKY/WX    TMP DP  RH WIND       PRES   REMARKS
REEDSBURG      CLEAR     48  48 100 CALM      30.10S
BARABOO/DELLS  CLEAR     46  45  94 CALM      30.10R
LONE ROCK      NOT AVBL
MINERAL POINT  CLEAR     54  46  76 CALM      30.12S
MADISON        CLEAR     52  46  80 NW3       30.09S
MIDDLETON      CLEAR     49  46  88 CALM      30.10S
WATERTOWN      NOT AVBL
MONROE         CLEAR     54  45  71 W9        30.11S
JANESVILLE     CLEAR     50  50 100 CALM      30.10S
$$

WIZ051-052-058>065-066-070>072-270900-
SOUTHEAST WISCONSIN

CITY           SKY/WX    TMP DP  RH WIND       PRES   REMARKS
MILWAUKEE      PTCLDY    56  48  74 W5        30.08S
WAUKESHA       CLEAR     46  43  87 CALM      30.10S
MILWAUKEE/TIMM CLEAR     50  45  81 SW3       30.09S
RACINE         CLEAR     52  46  80 W6        30.10S
KENOSHA        PTCLDY    48  45  89 W5        30.09S
FOND DU LAC    CLEAR     51  45  79 W5        30.07S
SHEBOYGAN      CLEAR     49  48  97 W5        30.05F
WEST BEND      CLEAR     46  46 100 CALM      30.07S
JUNEAU         CLEAR     47  45  93 CALM      30.09S
$$

LSZ147-162-270900-
LAKE SUPERIOR

STATION/POSITION TIME  TEMP    WIND        PRES    WAVE
                       AIR SEA DIR/SP/G            HT/PER
                 (UTC) (F)     (DEG/KT/KT) (MB)    (FT/S)
W MID LAKE BUOY  0650   44 39  260/  8/ 10 1016.0F   1/ 3
DEVILS ISLAND    0700   53     240/  8/  9 1016.6F
SAXON HARBOR     0730   58     190/  7/  9 1016.3S
$$

LMZ867-665-643>646-270900-
LAKE MICHIGAN

STATION/POSITION TIME  TEMP    WIND        PRES    WAVE
                       AIR SEA DIR/SP/G            HT/PER
                 (UTC) (F)     (DEG/KT/KT) (MB)    (FT/S)
CHAMBERS ISLAND  0740   55     250/  2/  8 1015.9S
S GREEN BAY BUOY 0730   57     270/ 12/ 16 1016.3R
N MID LAKE BUOY  0650   55 55  220/  6/  6 1016.3F   1
NORTHPORT PIER   0740   56     260/  4/  7 1015.9S
KEWAUNEE LAKESHO 0730   52     300/  5/  6 1016.3F
SHEBOYGAN LAKESH 0700   54     260/  8/  9 1017.7F
PORT WASHINGTON  0740   54     260/  4/  6 1019.0S
ATWATER BUOY     0609   57 58  240/  6/  6 1018.5F
MILWAUKEE LAKESH 0730   58     280/  5/  6   N/A
S MID LAKE BUOY  0650   58 61  340/ 10/ 12 1018.5R   3/ 5
KENOSHA   LAKESH 0700   56     270/  6/  8 1019.0
$$

TC  - TEMPERATURE IN CELSIUS
VSB - VISIBILITY IN STATUTE MILES
WCI - WIND CHILL INDEX
HX  - HEAT INDEX





USA.gov is the U.S. government's official web portal to all federal, state and local government web resources and services.